TimeEST,TemperatureF,Dew PointF,Humidity,Sea Level PressureIn,VisibilityMPH,Wind Direction,Wind SpeedMPH,Gust SpeedMPH,PrecipitationIn,Events,Conditions,WindDirDegrees,DateUTC
12:51 AM,28.9,24.1,82,29.99,7.0,Calm,Calm,-,N/A,,Mostly Cloudy,0,2013-02-15 05:51:00
1:51 AM,28.9,26.1,89,30.00,6.0,Calm,Calm,-,N/A,,Mostly Cloudy,0,2013-02-15 06:51:00
2:51 AM,28.0,24.1,85,29.99,7.0,NW,3.5,-,N/A,,Scattered Clouds,310,2013-02-15 07:51:00
3:51 AM,28.9,24.1,82,29.98,6.0,Calm,Calm,-,N/A,,Haze,0,2013-02-15 08:51:00
4:51 AM,27.0,24.1,89,29.98,6.0,NNW,3.5,-,N/A,,Clear,340,2013-02-15 09:51:00
5:51 AM,27.0,23.0,85,29.99,6.0,Calm,Calm,-,N/A,,Clear,0,2013-02-15 10:51:00
6:51 AM,26.1,21.9,84,29.99,4.0,Calm,Calm,-,N/A,,Clear,0,2013-02-15 11:51:00
7:51 AM,28.0,25.0,88,30.01,3.0,Calm,Calm,-,N/A,,Clear,0,2013-02-15 12:51:00
8:51 AM,34.0,30.0,85,30.02,4.0,Calm,Calm,-,N/A,,Clear,0,2013-02-15 13:51:00
9:51 AM,42.1,32.0,67,30.01,7.0,WSW,4.6,-,N/A,,Clear,250,2013-02-15 14:51:00
10:51 AM,48.0,33.1,56,30.00,10.0,WSW,10.4,-,0.00,,Clear,240,2013-02-15 15:51:00
11:51 AM,50.0,33.1,52,29.98,10.0,WSW,16.1,25.3,N/A,,Clear,240,2013-02-15 16:51:00
12:51 PM,51.1,30.9,46,29.95,10.0,WSW,18.4,28.8,N/A,,Clear,250,2013-02-15 17:51:00
1:51 PM,52.0,30.0,43,29.94,10.0,West,15.0,23.0,N/A,,Clear,260,2013-02-15 18:51:00
2:51 PM,52.0,28.9,41,29.94,10.0,WSW,13.8,21.9,N/A,,Clear,250,2013-02-15 19:51:00
3:51 PM,50.0,28.9,44,29.94,10.0,West,12.7,19.6,N/A,,Partly Cloudy,260,2013-02-15 20:51:00
4:51 PM,48.0,28.0,46,29.94,10.0,NW,10.4,-,N/A,,Mostly Cloudy,310,2013-02-15 21:51:00
5:51 PM,45.0,27.0,49,29.94,10.0,NNW,5.8,-,N/A,,Overcast,330,2013-02-15 22:51:00
6:51 PM,45.0,23.0,42,29.94,10.0,WNW,4.6,-,N/A,,Overcast,290,2013-02-15 23:51:00
7:51 PM,44.1,27.0,51,29.95,10.0,NW,12.7,-,N/A,,Overcast,320,2013-02-16 00:51:00
8:51 PM,39.0,32.0,76,29.97,10.0,WNW,6.9,-,0.00,,Overcast,300,2013-02-16 01:51:00
9:10 PM,39.2,33.8,81,29.97,9.0,West,6.9,-,0.00,Rain,Light Rain,280,2013-02-16 02:10:00
9:51 PM,37.0,33.1,86,29.99,5.0,WNW,8.1,-,0.04,Rain,Light Rain,290,2013-02-16 02:51:00
10:38 PM,35.6,32.0,87,29.99,4.0,WNW,4.6,-,0.06,Snow,Light Snow,290,2013-02-16 03:38:00
10:51 PM,34.0,32.0,92,30.00,2.0,WSW,3.5,-,0.08,Snow,Light Snow,250,2013-02-16 03:51:00
11:07 PM,33.8,32.0,93,29.99,1.8,WSW,3.5,-,0.02,Snow,Light Snow,250,2013-02-16 04:07:00
11:36 PM,33.8,32.0,93,29.98,1.5,Calm,Calm,-,0.04,Snow,Light Snow,0,2013-02-16 04:36:00
11:51 PM,33.1,32.0,96,30.00,1.5,WSW,3.5,-,0.05,Snow,Light Snow,250,2013-02-16 04:51:00